Location: Narrabri
(30.3170°S, 149.7830°E)
Time: 04:18:00
(UTC+11:00)

Envisat - Pass Details

Date: 08 October 2017
Orbit: 764 x 766 km, 98.2° (Epoch: 14 December)

Event Time Altitude Azimuth Distance (km) Brightness Sun altitude
Rises 21:52:00 0° 174° (S) 3,259 6.6 -34.3°
Reaches altitude 10° 21:54:22 10° 178° (S) 2,326 5.8 -34.7°
Enters shadow 21:56:11 22° 185° (S) 1,644 5.0 -35.0°
